Regional Weather Roundup
Issued by NWS

Home | Current Version | Previous Version | Graphics & Text | Print | Product List | Glossary On
Versions: 1 2 3 4 5 6 7 8 9 10 11 12 13 14 15 16 17 18 19 20 21 22 23 24 25 26 27 28 29 30 31 32 33 34 35 36 37 38 39 40 41 42 43 44 45 46 47 48 49 50
000
ASUS45 KTFX 231019
RWRMT
MONTANA HOURLY WEATHER ROUNDUP
NATIONAL WEATHER SERVICE GREAT FALLS MT
419 AM MDT TUE SEP 23 2014

NOTE: "FAIR" INDICATES FEW OR NO CLOUDS BELOW 12000 FEET WITH NO
SIGNIFICANT WEATHER AND/OR OBSTRUCTIONS TO VISIBILITY.

* THESE STATIONS ARE NOT UNDER NWS QUALITY CONTROL. THEY DO NOT
   REPORT WEATHER SUCH AS PRECIPITATION OR FOG.

MTZ001>007-043-231100-
WEST OF THE DIVIDE
CITY           SKY/WX    TMP DP  RH WIND       PRES   REMARKS
KALISPELL      CLEAR     46  43  89 NE5       29.96S
MISSOULA       PTCLDY    52  45  77 W5        30.03S
BUTTE          PTCLDY    39  37  93 SE5       30.15F WCI  35
MULLAN PASS    CLOUDY    52  45  77 NW6       30.15S
* ESSEX        N/A       50  43  77 E3G12      N/A
* LINCOLN      N/A       40  36  86 NE1        N/A
* POLSON       N/A       60  43  54 S2         N/A
* RONAN APT    PTCLDY    54  45  72 N/A        N/A
* SEELEY LAKE  N/A       41  36  82 N3         N/A
* THOMP F APT  MOCLDY    57  48  72 N/A        N/A
$$

MTZ008-052>055-231100-
SOUTHWEST MONTANA
CITY           SKY/WX    TMP DP  RH WIND       PRES   REMARKS
BOZEMAN        PTCLDY    48  45  89 CALM      30.09S
DILLON         PTCLDY    52  45  77 S7        30.13S
W YELLOWSTONE  CLOUDY    46  46 100 CALM      30.24S
* THREE FORKS  PTCLDY    46  30  54 N/A        N/A
* BOULDER HILL N/A       54  41  62 SW8        N/A
* MONIDA PASS  N/A       43  43 100 E6         N/A
* RAYNOLDS PAS N/A       46  35  66 SW4        N/A
* WHITEHALL    N/A       49  45  86 N2G9       N/A
* WISE RIVER   N/A       43  41  93 W4         N/A
$$

MTZ009>010-012-014-046-048-049-054-231100-
EAST SLOPES AND CENTRAL MONTANA
CITY           SKY/WX    TMP DP  RH WIND       PRES   REMARKS
CUT BANK       CLEAR     64  43  47 W17       29.94S
GREAT FALLS    CLEAR     61  48  62 SW13      29.95S
HELENA         PTCLDY    54  46  74 CALM      30.04S
MALMSTROM AFB  MOCLDY    61  48  62 SW14      29.97R
* CONRAD       CLEAR     57  46  67 N/A        N/A
* EAST GLACIER N/A       56  42  60 W4         N/A
* MONARCH      N/A       52  42  69 E2G9       N/A
* PENDROY      N/A       64  44  48 NW15       N/A
* ROGERS PASS  N/A       57  36  46 NW4        N/A
* SAINT MARY   N/A       49  42  77 SE5        N/A
* SWEET GRASS  N/A       64  41  43 W15G20     N/A
* WHITE SULPH  N/A       46  42  86 NE3        N/A
$$

MTZ011-013-016-021-035-040-045-047-050-051-231100-
NORTH CENTRAL MONTANA
CITY           SKY/WX    TMP DP  RH WIND       PRES   REMARKS
HAVRE          PTCLDY    52  48  86 W7        29.86R
LEWISTOWN      CLEAR     52  45  77 SE8       29.97S
* CHINOOK      CLEAR     46  46 100 NW3       29.86R VSB 1 1/2
* FORT BENTON  PTCLDY    59  48  67 SW7       29.92R
* CHESTER      N/A       50  42  74 N/A        N/A
* DENTON       N/A       56  47  72 S5         N/A
* GEYSER       N/A       56  44  64 W10        N/A
* JUDITH GAP   N/A       51  47  86 SW4        N/A
* LOMA         N/A       61  47  60 SW6        N/A
$$

MTZ017>020-022>027-061-062-231100-
NORTHEAST MONTANA
CITY           SKY/WX    TMP DP  RH WIND       PRES   REMARKS
GLASGOW        CLEAR     54  46  74 E12       29.82F
GLENDIVE       CLEAR     52  46  80 N5        29.86S
JORDAN         CLEAR     48  46  93 W3        29.85S
SIDNEY         CLEAR     48  45  89 CALM      29.85F
WOLF POINT     CLEAR     48  45  89 CALM      29.84S
* BEAVER HILL  N/A       55  49  80 SE7        N/A
* CIRCLE       N/A       50  45  83 N/A        N/A
* LINDSAY DVD  N/A       52  47  83 W4         N/A
* NAVAJO       N/A       53  47  80 S1         N/A
$$

MTZ028>042-056>058-231100-
SOUTHCENTRAL AND SOUTHEAST MONTANA
CITY           SKY/WX    TMP DP  RH WIND       PRES   REMARKS
BAKER          PTCLDY    54  48  80 E3        29.87S
BILLINGS       CLEAR     61  46  58 SW15      29.95R
LIVINGSTON     PTCLDY    57  46  67 W14G22    30.05R
MILES CITY     CLEAR     54  46  74 S3        29.86R
* LAUREL APT   CLEAR     57  45  64 N/A        N/A
* ROUNDUP APT  CLEAR     57  46  67 SW8        N/A
* ALZADA       N/A       61  55  81 SE7        N/A
* HYSHAM       N/A       59  46  62 W7         N/A
* LAME DEER    N/A       61  47  60 W11        N/A
* REED POINT   N/A       52  47  83 NW2        N/A
* ROSCOE HILL  N/A       61  35  38 SW8G15     N/A
$$

REGIONAL REPORTS...DAKOTAS
CITY           SKY/WX    TMP DP  RH WIND       PRES   REMARKS
WILLISTON      CLEAR     50  46  86 N5        29.85S
DICKINSON      PTCLDY    50  46  86 E7        29.85F
BEACH          N/A       50  50 100 S3        29.87R
CROSBY         CLEAR     46  46 100 S3        29.86S
TIOGA          CLEAR     43  43 100 E5        29.90F
WATFORD CITY   CLEAR     48  46  93 CALM      29.84S
BISMARCK       CLEAR     55  54  96 S8        29.91S
GRAND FORKS    CLEAR     52  48  86 S8        30.01S
FARGO          CLEAR     57  48  72 SE10      30.04R
BUFFALO SD     CLOUDY    61  54  78 S9        29.83S
RAPID CITY     CLOUDY    57  55  93 CALM      29.91R
$$

REGIONAL REPORTS...WYOMING/IDAHO/WASHINGTON
CITY           SKY/WX    TMP DP  RH WIND       PRES   REMARKS
GILLETTE       CLOUDY    59  52  78 E3        30.00R
SHERIDAN       PTCLDY    52  45  77 S3        29.96S
CODY           CLEAR     63  45  52 W3        30.06R
YELLOWSTONE LA PTCLDY    46  46 100 CALM      30.31R
SALMON         MOCLDY    52  48  86 S3        30.10S
MULLAN PASS    CLOUDY    52  45  77 NW6       30.15S
SAND POINT     CLOUDY    64  50  61 S5        29.97S
SPOKANE        CLOUDY    63  54  73 S6        29.95F
$$

REGIONAL REPORTS...ALBERTA
CITY           SKY/WX    TMP DP  RH WIND       PRES   REMARKS
CALGARY        MOCLDY    59  45  60 E8        29.89R
LETHBRIDGE     CLEAR     57  45  64 SW13      29.87S
MEDICINE HAT   CLEAR     50  46  86 SW7       29.81S
EDMONTON       PTCLDY    55  48  77 NW10      29.85R
WATERTON GATE  N/A       50  43  77 SW2        N/A
CARDSTON       N/A       59  45  60 SW9        N/A
MILK RIVER     N/A       54  45  72 NW12       N/A
$$

REGIONAL REPORTS...SASKATCHEWAN
CITY           SKY/WX    TMP DP  RH WIND       PRES   REMARKS
SWIFT CURRENT  CLEAR     55  48  77 SW14      29.80S
MOOSE JAW      FAIR      54  48  80 SE6       29.80F
REGINA         N/A       50  46  86 SE8       29.82F
VAL MARIE      N/A       43  41  93 NE2        N/A
ASSINIBOIA     N/A       54  45  72 SE9        N/A
CORONACH       N/A       43  41  93 SE1        N/A

$$



USA.gov is the U.S. government's official web portal to all federal, state and local government web resources and services.